Location: Corsier
(46.2637°N, 6.2238°E)
Time: 02:10:36
(UTC+00:00)

STARLINK-1266 - Pass Details

Date: 07 June 2020
Orbit: 548 x 551 km, 53.0° (Epoch: 09 July)

Event Time Altitude Azimuth Distance (km) Brightness Sun altitude
Exits shadow 23:53:47 38° 115° (ESE) 841 4.3 -20.8°
Drops below altitude 10° 23:57:03 10° 69° (ENE) 1,820 6.6 -20.8°
Enters shadow 00:57:52 -62° 242° (WSW) 11,826 10.3 -18.4°
Maximum altitude 01:32:39 51° 338° (NNW) 698 4.4 -15.9°
